Temperature
19 19 19 18 18 17 17 16 16 15 14 14 13 13 13 12 12 12 12 11 11 11 11 11 11 11 11 11 11 11 11 11 11 11 11 12 12 12 13 13 13 13 13
20 19 19 18 18 17 17 17 16 15 14 14 13 13 13 12 12 12 11 11 11 11 11 11 11 11 11 10 10 10 10 10 10 11 11 11 12 12 12 12 13 13 13
20 20 19 19 18 18 17 17 16 15 15 14 14 13 13 12 12 12 11 11 11 11 11 11 11 10 10 10 10 10 10 10 10 10 10 11 11 11 12 12 12 13 13
20 20 19 19 18 18 17 17 16 16 15 15 15 14 14 13 12 12 12 11 11 11 11 10 10 10 10 10 10 10 10 10 10 10 10 10 10 11 11 11 12 12 12
21 20 20 19 19 18 17 17 16 16 16 15 15 15 14 14 13 13 12 12 11 11 10 10 10 10 10 10 10 10 10 9 9 9 10 10 10 10 10 10 11 11 12
21 21 20 19 19 18 18 17 17 16 16 16 15 15 14 14 13 13 12 11 11 11 10 10 10 10 10 10 10 9 9 9 9 9 9 9 10 10 10 10 10 10 11
21 21 20 19 19 18 18 17 17 17 16 16 15 15 15 14 13 13 12 12 11 11 10 10 10 10 10 10 10 9 9 9 9 9 9 9 9 10 10 10 10 10 10
21 20 20 19 19 18 18 17 17 17 16 16 15 15 15 15 14 13 12 12 11 11 11 10 10 10 10 10 9 9 9 9 9 9 9 9 9 9 9 9 9 9 10
20 20 20 19 19 18 18 17 17 16 16 16 16 15 15 15 14 13 12 12 11 11 11 10 10 10 10 9 9 9 9 9 9 9 9 9 9 9 9 9 9 9 9
20 20 20 19 18 18 18 17 17 16 16 16 15 15 15 14 14 13 12 12 11 11 11 11 10 10 10 9 9 9 9 9 9 9 9 9 9 9 9 8 8 8 8
19 19 19 18 18 17 17 16 16 16 15 15 15 15 14 14 14 13 12 12 12 11 11 11 11 10 10 9 9 9 9 9 9 8 8 8 8 9 9 8 8 8 8
18 17 17 17 16 16 16 15 15 15 15 15 15 14 14 14 13 13 12 12 11 11 11 11 10 10 10 9 9 9 9 8 8 8 8 8 8 9 9 8 8 8 8
16 16 16 15 15 15 15 14 14 14 14 14 14 14 14 14 13 13 12 12 11 11 11 10 10 10 9 9 9 9 8 8 8 8 8 8 8 8 8 8 8 8 8
14 14 14 14 14 14 13 13 13 13 13 13 13 13 13 13 13 13 12 12 11 11 11 10 10 9 9 9 9 9 9 8 8 8 8 8 8 8 8 8 8 8 7
13 13 13 12 12 12 12 12 12 12 12 12 12 12 12 12 12 12 12 11 11 11 10 10 9 9 9 9 9 9 9 8 8 8 8 8 8 8 8 8 7 7 7
12 12 12 11 11 11 11 11 11 11 11 11 11 12 12 12 12 12 11 11 11 10 10 9 9 9 9 9 9 9 9 8 8 8 8 8 8 8 8 8 8 7 7
11 11 10 10 10 10 10 10 10 10 11 11 11 11 11 11 11 11 11 10 10 10 10 10 9 9 9 9 9 8 8 8 8 8 8 8 8 8 8 8 8 8 7
10 10 9 9 9 9 9 9 9 9 9 10 10 10 11 11 11 11 10 10 10 10 10 10 9 9 9 9 9 8 8 8 8 8 8 8 8 8 8 8 8 8 8
9 9 9 8 8 8 8 8 8 8 8 9 9 10 10 10 10 10 10 10 10 10 10 10 9 9 9 9 9 8 8 8 8 8 8 8 8 8 8 8 8 8 8
9 8 8 8 8 7 7 7 7 7 7 8 8 8 9 9 9 9 10 9 9 9 9 9 9 9 9 8 8 8 8 8 8 8 8 8 8 8 8 8 8 8 8
8 8 8 7 7 6 6 6 6 6 6 7 7 8 8 8 8 9 9 9 9 9 9 9 9 8 8 8 8 8 8 8 8 8 8 8 8 8 8 8 8 8 8
8 7 7 6 6 6 5 5 5 5 5 6 6 7 7 7 8 8 8 8 8 8 8 8 8 8 8 8 8 8 8 8 8 8 8 8 8 8 8 8 8 8 7
7 6 6 5 5 5 5 5 5 5 5 5 6 6 7 7 7 7 7 7 8 8 8 8 8 8 8 7 7 7 7 7 8 8 8 8 8 8 8 8 7 7 7
6 5 5 4 4 4 4 4 4 4 4 4 5 5 6 6 6 6 6 7 7 7 7 7 7 7 7 7 7 7 7 7 7 7 7 7 7 7 7 7 7 7 7
5 4 4 3 3 3 3 3 3 3 3 4 4 4 5 5 5 5 6 6 6 6 6 6 6 6 6 7 7 7 7 7 7 7 7 7 7 7 7 7 7 7 7
3 3 2 2 2 2 2 2 2 2 3 3 3 3 4 4 4 5 5 5 5 6 6 6 6 6 6 7 7 7 7 7 7 7 7 7 7 7 7 7 7 7 7
Wind_Speed
11 9 9 8 8 8 7 7 7 6 6 7 7 7 7 7 6 6 7 7 7 6 6 6 6 5 4 4 3 3 3 3 4 5 3 4 4 6 7 9 11 11 12
11 10 9 9 8 8 8 8 7 7 7 7 7 7 7 7 7 7 7 7 7 8 8 7 7 6 5 5 4 4 4 4 5 6 4 3 4 5 6 6 7 10 10
11 10 9 9 9 9 8 8 7 8 8 7 7 8 8 8 7 7 8 7 8 8 8 8 8 7 7 5 5 5 5 5 4 5 5 3 4 4 5 5 6 5 8
11 11 11 10 10 10 9 8 8 8 8 8 8 8 8 8 8 8 8 8 8 7 7 8 8 8 8 8 6 7 6 6 5 5 5 4 4 4 3 3 5 4 5
12 12 12 11 10 9 9 9 9 9 9 9 8 8 8 7 7 8 7 7 7 7 7 7 8 10 11 9 7 7 7 6 5 5 5 4 4 3 3 2 3 4 4
13 13 12 10 10 10 10 9 9 9 9 8 8 8 8 7 10 12 9 7 7 7 7 7 8 9 11 13 13 12 10 9 8 6 6 6 7 5 4 3 3 3 4
13 12 11 11 12 12 11 10 10 10 9 8 8 8 8 10 12 13 14 9 8 8 8 7 8 8 9 7 9 10 10 13 13 9 9 9 8 7 5 5 5 5 5
12 11 11 11 12 11 10 11 10 8 8 8 8 9 8 10 13 14 14 10 8 9 9 9 9 9 9 9 8 8 8 9 10 9 9 10 10 9 8 7 6 5 5
11 11 12 12 12 11 11 11 9 8 8 8 7 9 9 10 13 15 13 7 8 10 9 9 10 10 13 14 10 9 9 9 11 14 14 13 15 14 9 4 4 4 5
11 11 10 10 10 11 11 10 8 8 10 9 9 9 10 10 13 15 14 6 8 8 8 9 13 13 14 14 9 9 10 10 8 7 8 9 9 10 12 9 8 7 6
6 5 6 7 8 8 8 7 7 8 8 9 9 9 10 12 13 16 15 9 9 9 8 8 9 14 15 15 12 9 13 11 7 7 7 7 6 6 7 7 8 9 8
1 1 2 3 4 5 6 6 6 7 9 9 9 9 9 10 12 14 17 17 14 10 10 9 9 14 14 13 9 11 14 10 5 5 6 7 8 8 8 8 8 9 11
5 3 3 3 3 3 4 6 5 6 7 8 8 10 10 8 9 16 17 18 19 13 10 13 13 14 12 10 12 14 11 6 6 7 9 10 9 9 7 6 6 7 8
7 6 5 5 5 5 4 5 5 6 8 9 9 10 10 8 8 8 8 9 12 12 10 11 13 13 11 11 10 9 8 8 8 9 8 9 7 6 7 6 6 6 6
6 6 6 5 5 6 6 6 8 8 10 11 10 10 10 11 13 14 10 8 8 9 6 4 4 5 6 6 7 8 7 7 9 9 9 9 8 8 8 7 6 6 6
6 6 5 5 6 6 8 9 12 14 17 18 19 16 13 15 15 15 17 17 14 11 7 5 6 7 9 9 9 9 8 9 9 9 9 10 9 9 9 7 7 7 8
5 6 5 6 6 7 8 9 12 13 15 17 18 18 18 17 16 16 16 14 12 13 7 7 8 9 9 9 9 9 10 9 9 9 10 10 10 9 9 8 8 8 8
6 7 7 6 6 7 8 9 9 11 11 10 12 14 15 16 16 15 12 9 6 8 8 10 10 10 10 10 10 10 10 8 8 9 10 10 10 9 9 10 9 10 9
6 6 6 6 7 7 8 9 9 11 10 10 9 9 11 11 11 11 10 8 9 10 10 11 11 10 10 10 9 9 9 9 9 8 9 10 9 9 10 10 10 12 11
5 10 10 7 7 7 8 9 9 10 10 10 9 8 6 5 4 5 6 8 9 9 9 10 10 10 9 9 9 9 8 9 9 9 9 9 9 9 11 11 10 10 10
5 8 12 9 7 7 8 9 10 10 10 10 9 9 9 6 6 6 5 7 8 9 9 8 8 8 8 7 8 9 9 8 8 8 8 8 8 8 9 9 10 10 9
5 6 6 6 7 7 8 8 9 10 10 11 9 9 10 6 5 4 4 4 5 6 6 5 6 6 6 6 7 7 7 8 8 7 8 7 7 8 8 8 9 9 9
5 6 6 6 6 9 9 8 9 10 10 10 9 7 5 3 3 3 3 3 3 3 3 4 5 5 5 5 6 6 7 8 7 7 7 7 7 8 8 9 10 10 10
5 6 6 7 7 7 8 9 9 9 9 9 9 7 5 4 4 3 3 3 3 3 3 3 4 6 7 6 5 5 6 7 6 6 8 8 8 7 7 8 9 10 10
5 6 6 7 7 8 8 8 9 9 9 8 8 8 7 6 5 4 4 4 4 4 5 5 5 6 7 8 7 6 6 8 7 6 6 6 8 8 8 9 9 9 10
6 7 6 7 7 8 8 9 9 10 9 8 8 8 7 7 6 5 5 4 5 5 6 6 7 8 9 7 7 6 6 6 7 7 6 6 8 8 8 8 10 9 9
Wind_Direction
181 182 179 184 186 184 189 201 203 206 204 202 206 210 217 224 225 222 231 236 238 248 251 246 252 252 251 254 248 241 225 199 245 273 267 287 302 306 310 302 289 275 271
181 177 180 183 183 188 199 209 209 211 212 210 209 212 220 224 222 219 229 232 229 236 243 243 250 253 248 247 244 246 247 232 230 269 283 293 292 293 293 296 289 282 269
178 178 182 186 189 197 205 208 207 208 213 214 210 215 222 223 220 221 222 228 228 230 232 232 240 240 247 246 243 244 246 255 233 244 268 272 282 292 305 302 297 290 283
181 181 188 195 197 201 204 206 208 208 211 215 216 219 221 222 222 222 222 226 231 233 231 229 232 228 235 241 244 241 240 249 248 248 260 270 275 289 302 307 316 313 298
184 190 198 199 198 199 203 208 211 212 216 215 218 223 224 223 225 221 220 224 226 232 235 235 236 237 237 235 238 234 233 236 239 243 256 268 272 284 280 284 296 306 301
190 199 199 194 196 201 206 208 210 215 218 216 219 222 225 228 225 217 207 212 214 220 233 241 249 255 256 253 252 246 230 226 228 232 242 245 254 250 252 259 275 313 305
198 201 197 195 199 206 207 206 211 215 216 219 224 223 228 232 231 227 220 210 216 222 228 237 252 254 253 251 261 266 259 245 229 221 230 239 244 239 235 252 248 242 248
200 203 200 198 204 205 204 209 213 212 213 219 225 226 231 237 233 232 229 219 220 227 228 229 236 250 255 247 250 257 255 253 242 231 228 236 238 236 225 233 241 250 259
202 204 202 200 203 204 208 214 212 208 215 217 219 223 229 241 239 236 228 215 226 236 236 234 233 244 251 250 247 251 257 259 255 241 232 235 240 242 231 228 239 245 267
216 213 207 200 201 206 214 217 213 210 218 220 226 225 227 237 240 236 224 211 228 240 242 240 238 242 250 251 240 238 249 255 251 253 246 249 248 250 243 222 221 229 241
237 217 209 209 212 216 219 220 219 220 224 226 232 235 232 236 241 238 225 210 224 233 240 242 240 239 245 250 242 230 240 244 240 237 244 250 253 249 244 226 219 221 227
6 246 233 226 226 231 228 233 231 228 232 236 238 246 245 241 239 241 233 222 218 222 234 238 235 236 240 246 243 234 242 244 235 236 243 249 251 252 249 239 229 228 231
30 10 338 310 283 263 243 246 249 239 239 245 242 247 253 247 242 241 240 233 225 222 234 233 230 233 237 244 244 244 243 234 226 236 245 250 246 246 245 246 247 240 239
29 10 356 343 326 315 294 269 259 255 253 253 249 250 252 251 247 241 235 236 231 227 235 239 238 241 240 242 248 250 237 227 226 237 244 249 246 239 240 237 243 243 247
19 2 347 334 318 308 297 281 271 260 254 254 255 249 246 251 246 227 217 219 214 212 199 212 221 228 233 239 245 246 238 229 232 238 242 247 246 242 243 231 228 229 232
10 351 336 328 319 310 305 303 286 274 272 262 255 251 249 244 246 235 224 220 210 186 172 210 225 231 239 244 247 249 241 236 235 234 236 239 241 241 243 232 220 223 234
352 332 325 323 320 316 312 308 306 303 290 280 269 260 250 250 247 237 228 221 203 173 191 223 232 237 240 241 242 244 247 242 235 232 235 236 236 237 235 234 227 227 234
336 324 320 309 307 308 308 306 302 301 302 298 290 274 261 255 252 243 223 187 191 197 219 228 234 237 238 239 241 243 246 245 238 236 236 236 234 232 233 234 230 228 232
327 315 310 307 306 305 307 308 307 303 298 293 292 288 275 267 259 241 192 199 216 220 224 229 234 237 237 238 239 241 242 244 242 236 235 234 231 228 231 233 231 229 227
315 317 321 312 309 311 313 314 313 308 302 295 290 285 286 273 256 232 201 213 225 232 230 230 233 236 236 237 239 240 242 245 245 241 238 235 230 225 228 229 228 226 226
305 311 318 317 310 309 313 314 313 310 305 300 293 285 276 271 259 248 228 219 224 230 232 233 235 236 238 239 240 241 242 247 247 243 240 237 232 228 227 227 227 226 225
301 302 306 306 307 310 311 311 312 310 308 304 299 295 288 275 264 257 248 238 232 231 230 231 236 237 235 236 237 240 245 249 248 243 240 238 233 231 229 228 228 226 225
309 312 314 311 309 313 315 312 311 311 312 309 305 299 296 290 288 282 274 277 270 260 253 247 249 253 249 243 241 240 244 248 249 246 245 244 238 234 231 230 230 226 225
321 322 321 320 318 317 316 315 316 317 319 321 322 325 332 332 322 311 310 311 298 289 285 278 269 268 269 267 256 245 245 250 253 252 246 243 242 240 236 235 233 229 226
333 332 330 327 326 324 321 322 323 323 324 329 333 336 336 338 335 327 327 321 316 314 313 308 294 289 283 279 273 263 258 259 259 263 256 247 247 244 242 240 236 233 227
342 341 338 334 331 327 324 322 323 325 327 330 331 331 332 332 328 327 331 331 326 321 318 315 307 302 296 288 282 281 277 271 266 264 261 254 250 247 242 242 240 234 229
Height
1531 1532 1533 1533 1533 1534 1534 1534 1534 1533 1533 1533 1533 1532 1532 1531 1530 1530 1529 1528 1528 1527 1526 1525 1525 1524 1523 1523 1523 1523 1523 1522 1520 1518 1519 1519 1519 1519 1519 1519 1518 1518 1518
1528 1529 1529 1530 1530 1530 1531 1531 1530 1530 1530 1529 1529 1528 1528 1527 1526 1525 1525 1524 1523 1522 1522 1521 1520 1520 1519 1518 1518 1517 1517 1517 1516 1513 1513 1514 1514 1514 1513 1513 1513 1513 1512
1524 1525 1526 1526 1527 1527 1527 1527 1527 1526 1526 1525 1525 1524 1523 1522 1522 1521 1520 1519 1518 1518 1517 1516 1515 1515 1514 1513 1513 1512 1512 1512 1511 1509 1508 1508 1508 1508 1508 1507 1507 1507 1507
1519 1520 1521 1522 1523 1523 1524 1523 1523 1522 1522 1521 1520 1520 1519 1518 1517 1516 1515 1514 1513 1513 1512 1511 1510 1510 1509 1508 1507 1506 1506 1506 1506 1505 1504 1503 1503 1503 1503 1502 1501 1501 1501
1514 1515 1516 1518 1519 1519 1519 1519 1519 1518 1518 1517 1516 1515 1514 1513 1512 1511 1510 1509 1508 1507 1506 1506 1505 1504 1503 1502 1501 1500 1500 1500 1500 1499 1499 1498 1498 1498 1498 1497 1496 1496 1496
1509 1510 1511 1512 1513 1514 1514 1514 1514 1513 1513 1512 1511 1510 1509 1508 1507 1505 1504 1503 1502 1501 1500 1499 1499 1498 1497 1496 1495 1495 1494 1494 1493 1494 1493 1493 1493 1493 1493 1493 1492 1491 1491
1503 1505 1506 1507 1507 1508 1508 1509 1508 1508 1508 1507 1506 1505 1504 1502 1501 1500 1498 1497 1496 1495 1494 1493 1492 1491 1490 1489 1489 1489 1488 1488 1488 1488 1487 1487 1487 1488 1488 1487 1487 1486 1485
1498 1499 1500 1501 1501 1502 1502 1502 1502 1503 1502 1502 1501 1500 1498 1497 1495 1494 1492 1491 1489 1488 1488 1487 1486 1485 1484 1483 1482 1482 1482 1482 1482 1482 1481 1481 1482 1482 1482 1482 1481 1480 1479
1492 1492 1493 1494 1494 1495 1495 1496 1496 1496 1496 1495 1494 1493 1492 1491 1489 1488 1486 1484 1483 1482 1481 1480 1479 1479 1478 1478 1477 1476 1475 1475 1476 1476 1475 1475 1475 1475 1476 1475 1475 1474 1472
1486 1486 1487 1488 1488 1489 1489 1489 1490 1489 1489 1489 1488 1487 1485 1484 1483 1481 1480 1478 1476 1475 1475 1474 1473 1472 1472 1471 1471 1470 1469 1469 1469 1469 1469 1468 1468 1468 1469 1469 1468 1468 1467
1482 1482 1482 1483 1483 1483 1483 1483 1483 1482 1482 1481 1480 1479 1478 1477 1476 1475 1473 1471 1470 1469 1468 1467 1467 1466 1465 1465 1464 1464 1463 1463 1462 1462 1461 1461 1461 1461 1461 1461 1461 1461 1460
1478 1478 1477 1477 1478 1478 1477 1477 1476 1475 1474 1473 1472 1471 1470 1469 1468 1467 1466 1465 1463 1462 1461 1460 1460 1459 1459 1458 1457 1457 1457 1456 1455 1454 1454 1453 1453 1453 1453 1453 1453 1453 1453
1475 1474 1474 1474 1473 1472 1471 1470 1469 1468 1467 1465 1464 1462 1461 1461 1460 1459 1458 1457 1455 1454 1453 1453 1452 1452 1451 1450 1450 1450 1449 1448 1447 1446 1445 1444 1445 1445 1445 1444 1444 1445 1445
1473 1472 1470 1469 1468 1467 1466 1464 1463 1461 1459 1457 1455 1453 1452 1451 1450 1450 1449 1448 1447 1446 1445 1445 1444 1444 1443 1442 1442 1441 1441 1440 1439 1438 1437 1437 1437 1436 1436 1436 1436 1437 1437
1471 1469 1468 1465 1463 1461 1460 1458 1456 1454 1452 1449 1446 1444 1442 1440 1440 1440 1439 1439 1439 1438 1437 1436 1436 1435 1434 1434 1433 1432 1432 1431 1430 1430 1429 1429 1428 1428 1428 1429 1429 1430 1430
1469 1466 1464 1461 1459 1456 1453 1450 1447 1445 1442 1440 1437 1435 1432 1431 1430 1430 1429 1429 1429 1429 1428 1427 1427 1426 1425 1425 1424 1423 1423 1422 1421 1421 1421 1421 1421 1421 1421 1421 1422 1423 1423
1467 1464 1461 1458 1454 1451 1447 1443 1438 1434 1432 1430 1427 1425 1423 1421 1420 1420 1419 1419 1419 1419 1419 1418 1418 1417 1417 1416 1415 1414 1413 1413 1413 1413 1412 1412 1413 1413 1413 1413 1414 1415 1415
1464 1461 1457 1453 1450 1446 1442 1437 1432 1427 1423 1419 1417 1415 1413 1411 1410 1410 1410 1409 1409 1409 1409 1409 1409 1408 1408 1408 1407 1406 1405 1405 1405 1404 1404 1404 1405 1405 1405 1405 1406 1407 1408
1460 1457 1453 1449 1444 1440 1436 1431 1426 1421 1416 1411 1408 1406 1404 1403 1402 1401 1401 1400 1400 1400 1400 1400 1400 1400 1399 1399 1398 1398 1397 1397 1396 1396 1396 1396 1396 1397 1397 1397 1398 1399 1400
1456 1452 1448 1443 1439 1434 1429 1424 1419 1414 1409 1404 1401 1398 1396 1395 1393 1393 1392 1392 1392 1392 1392 1392 1392 1392 1391 1391 1390 1390 1389 1389 1388 1388 1387 1388 1388 1388 1389 1389 1390 1391 1391
1451 1447 1442 1438 1433 1428 1423 1418 1413 1408 1403 1398 1394 1392 1390 1388 1387 1386 1385 1385 1385 1384 1384 1384 1384 1384 1383 1383 1382 1382 1381 1380 1380 1380 1379 1379 1380 1380 1380 1381 1382 1383 1383
1445 1441 1436 1432 1427 1422 1417 1413 1408 1403 1397 1393 1388 1385 1383 1382 1380 1379 1379 1378 1378 1378 1378 1377 1377 1376 1376 1375 1375 1374 1373 1373 1372 1372 1372 1372 1372 1372 1373 1373 1373 1374 1375
1440 1435 1430 1426 1421 1417 1412 1407 1403 1398 1392 1387 1383 1380 1378 1376 1375 1374 1374 1373 1373 1372 1371 1371 1370 1369 1368 1368 1367 1367 1366 1366 1366 1365 1365 1365 1365 1365 1365 1365 1365 1366 1367
1434 1429 1425 1420 1415 1411 1406 1402 1397 1393 1388 1383 1379 1376 1373 1371 1370 1369 1369 1368 1367 1366 1365 1364 1363 1362 1361 1360 1360 1359 1359 1359 1358 1358 1358 1358 1357 1357 1357 1357 1357 1358 1359
1428 1424 1419 1415 1410 1406 1402 1397 1393 1388 1384 1379 1376 1373 1370 1368 1367 1366 1364 1363 1362 1361 1360 1358 1357 1356 1355 1354 1353 1352 1352 1352 1351 1351 1351 1351 1350 1350 1350 1350 1350 1350 1351
1423 1419 1415 1410 1406 1402 1398 1393 1389 1385 1381 1377 1374 1371 1368 1366 1364 1362 1360 1359 1357 1356 1354 1353 1351 1350 1349 1348 1347 1346 1345 1345 1344 1344 1343 1343 1343 1343 1343 1342 1343 1343 1344